Regional Weather Roundup
Issued by NWS

Home | Current Version | Previous Version | Graphics & Text | Print | Product List | Glossary On
Versions: 1 2 3 4 5 6 7 8 9 10 11 12 13 14 15 16 17 18 19 20 21 22 23 24 25 26 27 28 29 30 31 32 33 34 35 36 37 38 39 40 41 42 43 44 45 46 47 48 49 50
000
ASUS45 KTFX 241210
RWRMT
MONTANA REGIONAL WEATHER ROUNDUP
NATIONAL WEATHER SERVICE GREAT FALLS MT
600 AM MDT TUE MAY 24 2016

NOTE: "FAIR" INDICATES FEW OR NO CLOUDS BELOW 12000 FEET WITH NO
SIGNIFICANT WEATHER AND/OR OBSTRUCTIONS TO VISIBILITY.

MTZ001>007-043-241300-
WEST OF THE DIVIDE

CITY           SKY/WX    TMP DP  RH WIND       PRES   REMARKS
KALISPELL      CLOUDY    44  44 100 NE3       29.91S
MISSOULA       LGT RAIN  43  41  93 CALM      29.93R
BUTTE          LGT RAIN  36  34  92 CALM      29.92S
MULLAN PASS    LGT RAIN  35  35 100 VRB5      29.89S VSB 1/4
ANACONDA         N/A     39  36  87 S3        29.91S
DEER LODGE       N/A     39  39 100 CALM      29.92S
EUREKA           N/A     43  43 100 CALM      29.92S
HAMILTON         N/A     43  43 100 CALM      29.91S
LIBBY            N/A     45  45 100 CALM      29.92R
PLAINS           N/A     45  41  86 CALM      29.92R
$$

MTZ008-052>055-241300-
SOUTHWEST MONTANA

CITY           SKY/WX    TMP DP  RH WIND       PRES   REMARKS
BOZEMAN        CLOUDY    42  39  89 SE6       29.92S
DILLON         CLOUDY    37  33  85 S3        29.90R
ENNIS          CLOUDY    36  34  93 SE3       29.96S
$$

MTZ009-010-012-014-046-048-049-054-241300-
EAST SLOPES AND CENTRAL MONTANA

CITY           SKY/WX    TMP DP  RH WIND       PRES   REMARKS
CUT BANK       MOCLDY    39  36  89 NW9       29.88F
GREAT FALLS    PTCLDY    38  36  92 SW6       29.90S
MALMSTROM AFB  MOCLDY    40  40 100 SW5       29.91R
HELENA         CLOUDY    43  41  93 N3        29.90S
CHOTEAU          N/A     37  37 100 S5        29.91S
CONRAD           N/A     42  42 100 CALM      29.93R
$$

MTZ011-013-016-021-045-047-050-051-241300-
NORTH CENTRAL MONTANA

CITY           SKY/WX    TMP DP  RH WIND       PRES   REMARKS
HAVRE          CLOUDY    47  42  83 W9        29.86R
LEWISTOWN      CLOUDY    42  39  89 SW7       29.89S
N BAR RANCH    CLOUDY    41  36  81 NW5       29.91S
CHINOOK          N/A     48  43  81 W9        29.85R
$$

MTZ017>020-022>027-061-062-241300-
NORTHEAST MONTANA

CITY           SKY/WX    TMP DP  RH WIND       PRES   REMARKS
GLASGOW        CLOUDY    49  42  77 W13       29.82R
JORDAN           N/A     41  39  93 W7        29.87R
SIDNEY         PTCLDY    43  39  87 S7        29.87R
WOLF POINT     PTCLDY    49  42  77 SW8       29.84R
PLENTYWOOD       N/A     46  43  87 SW5       29.82R
POPLAR           N/A     50  43  76 SW7       29.84R
$$

MTZ028>42-056>058-241300-
SOUTHCENTRAL AND SOUTHEAST MONTANA

CITY           SKY/WX    TMP DP  RH WIND       PRES   REMARKS
BAKER          CLOUDY    41  36  82 CALM      29.90R
BILLINGS       CLOUDY    46  42  86 S5        29.90R
LIVINGSTON     CLOUDY    41  35  79 SW7       29.90S
MILES CITY     CLOUDY    47  42  83 S3        29.89R
FORSYTH          N/A     48  43  81 CALM      29.89R
$$

REGIONAL REPORTS...DAKOTAS

CITY           SKY/WX    TMP DP  RH WIND       PRES   REMARKS
WILLISTON      PTCLDY    45  41  86 SW7       29.85R
MINOT          CLEAR     51  42  71 SW3       29.82R
DICKINSON      CLEAR     40  36  86 W6        29.85R
BEACH            N/A     41  41 100 CALM      29.91R
CROSBY           N/A     45  45 100 S14       29.84R
WATFORD CITY   CLOUDY    45  39  81 SW7       29.87R
BISMARCK       CLEAR     50  44  80 W7        29.84R
GRAND FORKS    CLOUDY    59  51  75 N9        29.78F
FARGO          CLOUDY    61  49  64 NE6       29.79F
BUFFALO SD       N/A     43  35  73 CALM      29.82R
RAPID CITY     CLEAR     47  36  65 NW10      29.89R
$$

REGIONAL REPORTS...WYOMING/IDAHO/WASHINGTON

CITY           SKY/WX    TMP DP  RH WIND       PRES   REMARKS
GILLETTE       CLEAR     32  30  92 CALM      29.90S
SHERIDAN       CLEAR     35  30  82 CALM      29.91S
BUFFALO WY     CLEAR     41  31  67 CALM      29.92S
CODY           CLEAR     36  32  87 S3        29.90S
YELLOWSTONE LA   N/A     28  26  92 CALM      29.97R
IDAHO FALLS    CLEAR     36  32  85 N3        29.87S
SALMON         CLOUDY    41  34  75 CALM      29.90R
BOISE          PTCLDY    45  37  73 SW3       29.84S
SPOKANE        CLOUDY    49  46  90 NE3       29.87S
$$

REGIONAL REPORTS...ALBERTA

CITY           SKY/WX    TMP DP  RH WIND       PRES   REMARKS
EDMONTON       CLOUDY    46  43  87 S3        29.86R
CALGARY        PTCLDY    43  39  87 S5        29.86S
LETHBRIDGE     MOCLDY    45  43  93 W3        29.88S
MEDICINE HAT   LGT RAIN  46  46 100 W10       29.83S FOG
WATERTON GATE    N/A     39  36  87 S7          N/A
MILK RIVER       N/A     43  41  93 NW6         N/A
ONEFOUR          N/A     45  43  93 W13         N/A
$$

REGIONAL REPORTS...SASKATCHEWAN

CITY           SKY/WX    TMP DP  RH WIND       PRES   REMARKS
SWIFT CURRENT  LGT RAIN  45  45 100 MISG      29.75S
REGINA         MOCLDY    45  45 100 SE7       29.75R
SASKATOON      CLOUDY    50  48  93 NE16G23   29.80R
CYPRESS HILLS    N/A     41  39  93 NW7         N/A
ROCKGLEN         N/A     45  45 100 W12         N/A
ASSINIBOIA       N/A     46  46 100 NE1         N/A
$$



USA.gov is the U.S. government's official web portal to all federal, state and local government web resources and services.